,,,PA_Meas_PMT16A,,PR_Meas_QMR101_102,,RH_Meas_QMH101,,SR_Meas_QMS101,,TA_Meas_QMH101,,GenWind,,GenWind,
date,time,status,PA,status,PR,status,RH,status,SR,status,TA,status,DirAvg,status,SpdAvg,
2011-01-03, 00:00:04,VALID,1008.11,VALID,0,VALID,104,VALID,0,VALID,23.5186,VALID,162,VALID,0,
2011-01-03, 00:01:04,VALID,1008.11,VALID,0,VALID,104,VALID,0.105969,VALID,23.5363,VALID,162,VALID,0,
2011-01-03, 00:02:04,VALID,1008.1,VALID,0,VALID,104,VALID,0.105969,VALID,23.5363,VALID,162,VALID,0,
2011-01-03, 00:03:04,VALID,1008.11,VALID,0,VALID,104,VALID,0.105969,VALID,23.5363,VALID,162,VALID,0,
2011-01-03, 00:04:04,VALID,1008.11,VALID,0,VALID,104,VALID,0.105969,VALID,23.5363,VALID,162,VALID,0,
2011-01-03, 00:05:04,VALID,1008.13,VALID,0,VALID,104,VALID,0.105969,VALID,23.5363,VALID,162,VALID,0.174609,
2011-01-03, 00:06:04,VALID,1008.09,VALID,0,VALID,104,VALID,0.105969,VALID,23.5363,VALID,162,VALID,0.4,
2011-01-03, 00:07:04,VALID,1008.13,VALID,0,VALID,104,VALID,0.105969,VALID,23.5363,VALID,162,VALID,0.187109,
2011-01-03, 00:08:04,VALID,1008.13,VALID,0,VALID,104,VALID,0.105969,VALID,23.5363,VALID,162,VALID,0.378906,
2011-01-03, 00:09:05,VALID,1008.16,VALID,0,VALID,104,VALID,0.105969,VALID,23.5558,VALID,162,VALID,0.509375,
2011-01-03, 00:10:04,VALID,1008.18,VALID,0,VALID,104,VALID,0,VALID,23.5381,VALID,162,VALID,0.397266,
2011-01-03, 00:11:05,VALID,1008.19,VALID,0,VALID,104,VALID,0,VALID,23.5169,VALID,103,VALID,0.680078,
2011-01-03, 00:12:05,VALID,1008.21,VALID,0,VALID,104,VALID,0,VALID,23.5381,VALID,93,VALID,0.596484,
2011-01-03, 00:13:05,VALID,1008.24,VALID,0,VALID,104,VALID,0,VALID,23.5771,VALID,93,VALID,0.578125,
2011-01-03, 00:14:05,VALID,1008.24,VALID,0,VALID,104,VALID,0,VALID,23.5966,VALID,93,VALID,0.473047,
2011-01-03, 00:15:05,VALID,1008.22,VALID,0,VALID,104,VALID,0,VALID,23.5966,VALID,93,VALID,0.437891,
2011-01-03, 00:16:05,VALID,1008.24,VALID,0,VALID,104,VALID,0,VALID,23.5966,VALID,93,VALID,0.521094,
2011-01-03, 00:17:05,VALID,1008.21,VALID,0,VALID,104,VALID,0,VALID,23.6161,VALID,93,VALID,0.0320312,
2011-01-03, 00:18:05,VALID,1008.22,VALID,0,VALID,104,VALID,0,VALID,23.6161,VALID,93,VALID,0.296484,
2011-01-03, 00:19:05,VALID,1008.2,VALID,0,VALID,104,VALID,0,VALID,23.6356,VALID,93,VALID,0.260156,
2011-01-03, 00:20:05,VALID,1008.2,VALID,0,VALID,104,VALID,0,VALID,23.6143,VALID,93,VALID,0.40625,
2011-01-03, 00:21:05,VALID,1008.21,VALID,0,VALID,104,VALID,0,VALID,23.6568,VALID,120,VALID,0.646875,
2011-01-03, 00:22:05,VALID,1008.19,VALID,0,VALID,104,VALID,0,VALID,23.6161,VALID,122,VALID,0.708984,
2011-01-03, 00:23:05,VALID,1008.2,VALID,0,VALID,104,VALID,0,VALID,23.6161,VALID,125,VALID,0.738672,
2011-01-03, 00:24:05,VALID,1008.22,VALID,0,VALID,104,VALID,0,VALID,23.6161,VALID,125,VALID,0.425,
2011-01-03, 00:25:05,VALID,1008.23,VALID,0,VALID,104,VALID,0,VALID,23.6161,VALID,125,VALID,0.7125,
2011-01-03, 00:26:05,VALID,1008.21,VALID,0,VALID,104,VALID,0,VALID,23.6161,VALID,125,VALID,0.502734,
2011-01-03, 00:27:05,VALID,1008.22,VALID,0,VALID,104,VALID,0,VALID,23.6373,VALID,103,VALID,0.831641,
2011-01-03, 00:28:05,VALID,1008.18,VALID,0,VALID,104,VALID,0,VALID,23.6356,VALID,94,VALID,0.833984,
2011-01-03, 00:29:05,VALID,1008.19,VALID,0,VALID,104,VALID,0,VALID,23.6745,VALID,85,VALID,0.522266,
2011-01-03, 00:30:05,VALID,1008.16,VALID,0,VALID,104,VALID,0,VALID,23.6356,VALID,72,VALID,0.858984,
2011-01-03, 00:31:05,VALID,1008.15,VALID,0,VALID,104,VALID,0,VALID,23.6373,VALID,73,VALID,0.602734,
2011-01-03, 00:32:05,VALID,1008.15,VALID,0,VALID,104,VALID,0,VALID,23.6161,VALID,63,VALID,0.614062,
2011-01-03, 00:33:05,VALID,1008.1,VALID,0,VALID,104,VALID,0,VALID,23.6161,VALID,60,VALID,0.603516,
2011-01-03, 00:34:05,VALID,1008.09,VALID,0,VALID,104,VALID,0,VALID,23.5771,VALID,60,VALID,0.620703,
2011-01-03, 00:35:05,VALID,1008.08,VALID,0,VALID,104,VALID,0,VALID,23.5576,VALID,70,VALID,0.450391,
2011-01-03, 00:36:05,VALID,1008.07,VALID,0,VALID,104,VALID,0,VALID,23.5789,VALID,74,VALID,0.503516,
2011-01-03, 00:37:05,VALID,1008.06,VALID,0,VALID,104,VALID,0,VALID,23.5381,VALID,71,VALID,0.241406,
2011-01-03, 00:38:05,VALID,1008.08,VALID,0,VALID,104,VALID,0,VALID,23.5186,VALID,71,VALID,0.300781,
2011-01-03, 00:39:05,VALID,1008.05,VALID,0,VALID,104,VALID,0,VALID,23.4992,VALID,71,VALID,0.338672,
2011-01-03, 00:40:05,VALID,1008.03,VALID,0,VALID,104,VALID,0,VALID,23.4797,VALID,71,VALID,0.232422,
2011-01-03, 00:41:05,VALID,1008.08,VALID,0,VALID,104,VALID,0,VALID,23.4815,VALID,71,VALID,0,
2011-01-03, 00:42:05,VALID,1008.06,VALID,0,VALID,104,VALID,0,VALID,23.4602,VALID,71,VALID,0.395312,
2011-01-03, 00:43:05,VALID,1008.05,VALID,0,VALID,104,VALID,0,VALID,23.4425,VALID,71,VALID,0.347266,
2011-01-03, 00:44:05,VALID,1008.03,VALID,0,VALID,104,VALID,0,VALID,23.4212,VALID,53,VALID,0.529297,
2011-01-03, 00:45:05,VALID,1008.02,VALID,0,VALID,104,VALID,0,VALID,23.4212,VALID,41,VALID,0.676172,
2011-01-03, 00:46:05,VALID,1008,VALID,0,VALID,104,VALID,0,VALID,23.4212,VALID,47,VALID,0.441016,
2011-01-03, 00:47:05,VALID,1007.96,VALID,0,VALID,104,VALID,0,VALID,23.4017,VALID,46,VALID,0,
2011-01-03, 00:48:05,VALID,1007.96,VALID,0,VALID,104,VALID,0,VALID,23.3823,VALID,46,VALID,0,
2011-01-03, 00:49:05,VALID,1007.94,VALID,0,VALID,104,VALID,0,VALID,23.3823,VALID,46,VALID,0.204297,
2011-01-03, 00:50:05,VALID,1007.93,VALID,0,VALID,104,VALID,0,VALID,23.3628,VALID,46,VALID,0.649219,
2011-01-03, 00:51:05,VALID,1007.89,VALID,0,VALID,104,VALID,0,VALID,23.3433,VALID,46,VALID,0.623828,
2011-01-03, 00:52:05,VALID,1007.87,VALID,0,VALID,104,VALID,0,VALID,23.3238,VALID,46,VALID,0.429688,
2011-01-03, 00:53:05,VALID,1007.83,VALID,0,VALID,104,VALID,0,VALID,23.3238,VALID,46,VALID,0.429297,
2011-01-03, 00:54:05,VALID,1007.82,VALID,0,VALID,104,VALID,0,VALID,23.3043,VALID,57,VALID,0.724219,
2011-01-03, 00:55:05,VALID,1007.76,VALID,0,VALID,104,VALID,0,VALID,23.3043,VALID,55,VALID,0.078125,
2011-01-03, 00:56:05,VALID,1007.74,VALID,0,VALID,104,VALID,0,VALID,23.2848,VALID,55,VALID,0.487109,
2011-01-03, 00:57:05,VALID,1007.7,VALID,0,VALID,104,VALID,0,VALID,23.3061,VALID,83,VALID,0.544141,
2011-01-03, 00:58:05,VALID,1007.66,VALID,0,VALID,104,VALID,0,VALID,23.3061,VALID,83,VALID,0.0941406,
2011-01-03, 00:59:05,VALID,1007.63,VALID,0,VALID,104,VALID,0,VALID,23.3061,VALID,83,VALID,0.439453,
2011-01-03, 01:00:05,VALID,1007.62,VALID,0,VALID,104,VALID,0,VALID,23.2848,VALID,83,VALID,0.335547,
2011-01-03, 01:01:05,VALID,1007.59,VALID,0,VALID,104,VALID,0,VALID,23.3061,VALID,83,VALID,0.278906,
2011-01-03, 01:02:05,VALID,1007.59,VALID,0,VALID,104,VALID,0,VALID,23.2654,VALID,81,VALID,0.451172,
2011-01-03, 01:03:05,VALID,1007.57,VALID,0,VALID,104,VALID,0,VALID,23.2654,VALID,76,VALID,0.15,
2011-01-03, 01:04:05,VALID,1007.57,VALID,0,VALID,104,VALID,0,VALID,23.2459,VALID,76,VALID,0,
2011-01-03, 01:05:05,VALID,1007.55,VALID,0,VALID,104,VALID,0,VALID,23.2459,VALID,76,VALID,0.151953,
2011-01-03, 01:06:05,VALID,1007.51,VALID,0,VALID,104,VALID,0,VALID,23.2671,VALID,76,VALID,0.325391,
2011-01-03, 01:07:05,VALID,1007.47,VALID,0,VALID,104,VALID,0,VALID,23.2459,VALID,63,VALID,0.417969,
2011-01-03, 01:08:05,VALID,1007.45,VALID,0,VALID,104,VALID,0,VALID,23.2264,VALID,58,VALID,0.536719,
2011-01-03, 01:09:05,VALID,1007.43,VALID,0,VALID,104,VALID,0,VALID,23.2264,VALID,51,VALID,0.109375,
2011-01-03, 01:10:05,VALID,1007.39,VALID,0,VALID,104,VALID,0,VALID,23.2264,VALID,51,VALID,0.00429688,
2011-01-03, 01:11:05,VALID,1007.38,VALID,0,VALID,104,VALID,0,VALID,23.2069,VALID,51,VALID,0.171875,
2011-01-03, 01:12:05,VALID,1007.34,VALID,0,VALID,104,VALID,0,VALID,23.2264,VALID,51,VALID,0.0179687,
2011-01-03, 01:13:05,VALID,1007.31,VALID,0,VALID,104,VALID,0,VALID,23.2264,VALID,51,VALID,0.248047,
2011-01-03, 01:14:05,VALID,1007.28,VALID,0,VALID,104,VALID,0,VALID,23.2069,VALID,51,VALID,0,
2011-01-03, 01:15:05,VALID,1007.28,VALID,0,VALID,104,VALID,0,VALID,23.2069,VALID,51,VALID,0,
2011-01-03, 01:16:05,VALID,1007.25,VALID,0,VALID,104,VALID,0,VALID,23.2069,VALID,51,VALID,0.263281,
2011-01-03, 01:17:05,VALID,1007.27,VALID,0,VALID,104,VALID,0,VALID,23.2282,VALID,51,VALID,0.324219,
2011-01-03, 01:18:05,VALID,1007.27,VALID,0,VALID,104,VALID,0,VALID,23.2069,VALID,51,VALID,0.0105469,
2011-01-03, 01:19:05,VALID,1007.27,VALID,0,VALID,104,VALID,0,VALID,23.2069,VALID,51,VALID,0,
2011-01-03, 01:20:05,VALID,1007.26,VALID,0,VALID,104,VALID,0,VALID,23.2069,VALID,51,VALID,0,
2011-01-03, 01:21:05,VALID,1007.26,VALID,0,VALID,104,VALID,0,VALID,23.2069,VALID,51,VALID,0,
2011-01-03, 01:22:05,VALID,1007.26,VALID,0,VALID,104,VALID,0,VALID,23.2069,VALID,51,VALID,0,
2011-01-03, 01:23:05,VALID,1007.25,VALID,0,VALID,104,VALID,0,VALID,23.1874,VALID,51,VALID,0,
2011-01-03, 01:24:05,VALID,1007.26,VALID,0,VALID,104,VALID,0,VALID,23.2087,VALID,51,VALID,0,
2011-01-03, 01:25:05,VALID,1007.26,VALID,0,VALID,104,VALID,0,VALID,23.2069,VALID,51,VALID,0,
2011-01-03, 01:26:05,VALID,1007.23,VALID,0,VALID,104,VALID,0,VALID,23.2069,VALID,51,VALID,0,
2011-01-03, 01:27:05,VALID,1007.22,VALID,0,VALID,104,VALID,0,VALID,23.2069,VALID,51,VALID,0,
2011-01-03, 01:28:05,VALID,1007.22,VALID,0,VALID,104,VALID,0,VALID,23.2069,VALID,68,VALID,0.0207031,
2011-01-03, 01:29:05,VALID,1007.21,VALID,0,VALID,104,VALID,0,VALID,23.2264,VALID,68,VALID,0.273047,
2011-01-03, 01:30:05,VALID,1007.2,VALID,0,VALID,104,VALID,0,VALID,23.2459,VALID,68,VALID,0.435937,
2011-01-03, 01:31:05,VALID,1007.17,VALID,0,VALID,104,VALID,0,VALID,23.2654,VALID,68,VALID,0.133984,
2011-01-03, 01:32:05,VALID,1007.16,VALID,0,VALID,104,VALID,0,VALID,23.2654,VALID,68,VALID,0.372266,
2011-01-03, 01:33:05,VALID,1007.15,VALID,0,VALID,104,VALID,0,VALID,23.2654,VALID,68,VALID,0.271094,
2011-01-03, 01:34:05,VALID,1007.16,VALID,0,VALID,104,VALID,0,VALID,23.2848,VALID,68,VALID,0.153906,
2011-01-03, 01:35:05,VALID,1007.12,VALID,0,VALID,104,VALID,0,VALID,23.2636,VALID,68,VALID,0.207813,
2011-01-03, 01:36:05,VALID,1007.16,VALID,0,VALID,104,VALID,0,VALID,23.3043,VALID,100,VALID,0.224609,
2011-01-03, 01:37:05,VALID,1007.14,VALID,0,VALID,104,VALID,0,VALID,23.3238,VALID,112,VALID,0.645703,
2011-01-03, 01:38:05,VALID,1007.14,VALID,0,VALID,104,VALID,0,VALID,23.3238,VALID,112,VALID,0.452734,
2011-01-03, 01:39:05,VALID,1007.17,VALID,0,VALID,104,VALID,0,VALID,23.3043,VALID,119,VALID,0.976953,
2011-01-03, 01:40:05,VALID,1007.18,VALID,0,VALID,104,VALID,0,VALID,23.3256,VALID,117,VALID,1.3,
2011-01-03, 01:41:05,VALID,1007.19,VALID,0,VALID,104,VALID,0,VALID,23.2848,VALID,121,VALID,1.0082,
2011-01-03, 01:42:05,VALID,1007.21,VALID,0,VALID,104,VALID,0,VALID,23.2848,VALID,121,VALID,1.22773,
2011-01-03, 01:43:05,VALID,1007.19,VALID,0,VALID,104,VALID,0,VALID,23.2459,VALID,106,VALID,1.24727,
2011-01-03, 01:44:05,VALID,1007.2,VALID,0,VALID,104,VALID,0,VALID,23.2264,VALID,104,VALID,1.04531,
2011-01-03, 01:45:05,VALID,1007.18,VALID,0,VALID,104,VALID,0,VALID,23.1857,VALID,102,VALID,0.799219,
2011-01-03, 01:46:05,VALID,1007.14,VALID,0,VALID,104,VALID,0,VALID,23.1874,VALID,106,VALID,0.533984,
2011-01-03, 01:47:05,VALID,1007.12,VALID,0,VALID,104,VALID,0,VALID,23.1874,VALID,106,VALID,0.841406,
2011-01-03, 01:48:05,VALID,1007.1,VALID,0,VALID,104,VALID,0,VALID,23.1679,VALID,110,VALID,0.696094,
2011-01-03, 01:49:05,VALID,1007.07,VALID,0,VALID,104,VALID,0,VALID,23.1679,VALID,105,VALID,0.952734,
2011-01-03, 01:50:05,VALID,1007.03,VALID,0,VALID,104,VALID,0,VALID,23.1679,VALID,112,VALID,0.918359,
2011-01-03, 01:51:05,VALID,1007.02,VALID,0,VALID,104,VALID,0,VALID,23.1485,VALID,99,VALID,0.775781,
2011-01-03, 01:52:05,VALID,1006.98,VALID,0,VALID,104,VALID,0,VALID,23.1485,VALID,66,VALID,0.552344,
2011-01-03, 01:53:05,VALID,1006.99,VALID,0,VALID,104,VALID,0,VALID,23.1679,VALID,60,VALID,0.785156,
2011-01-03, 01:54:05,VALID,1007,VALID,0,VALID,104,VALID,0,VALID,23.1679,VALID,81,VALID,0.957031,
2011-01-03, 01:55:05,VALID,1006.98,VALID,0,VALID,104,VALID,0,VALID,23.1485,VALID,81,VALID,1.3043,
2011-01-03, 01:56:05,VALID,1006.98,VALID,0,VALID,104,VALID,0,VALID,23.1485,VALID,75,VALID,0.804297,
2011-01-03, 01:57:05,VALID,1006.94,VALID,0,VALID,104,VALID,0,VALID,23.129,VALID,93,VALID,1.12539,
2011-01-03, 01:58:05,VALID,1006.92,VALID,0,VALID,104,VALID,0,VALID,23.1485,VALID,94,VALID,0.782812,
2011-01-03, 01:59:05,VALID,1006.91,VALID,0,VALID,104,VALID,0,VALID,23.1485,VALID,89,VALID,0.764063,
2011-01-03, 02:00:05,VALID,1006.9,VALID,0,VALID,104,VALID,0,VALID,23.1485,VALID,120,VALID,0.746094,
2011-01-03, 02:01:05,VALID,1006.86,VALID,0,VALID,104,VALID,0,VALID,23.129,VALID,105,VALID,0.951563,
2011-01-03, 02:02:05,VALID,1006.87,VALID,0,VALID,104,VALID,0,VALID,23.129,VALID,100,VALID,0.837109,
2011-01-03, 02:03:05,VALID,1006.84,VALID,0,VALID,104,VALID,0,VALID,23.129,VALID,91,VALID,0.742969,
2011-01-03, 02:04:05,VALID,1006.87,VALID,0,VALID,104,VALID,0,VALID,23.1485,VALID,90,VALID,0.755078,
2011-01-03, 02:05:05,VALID,1006.86,VALID,0,VALID,104,VALID,0,VALID,23.129,VALID,88,VALID,0.386328,
2011-01-03, 02:06:05,VALID,1006.88,VALID,0,VALID,104,VALID,0,VALID,23.1485,VALID,88,VALID,0.216797,
2011-01-03, 02:07:05,VALID,1006.9,VALID,0,VALID,104,VALID,0,VALID,23.129,VALID,81,VALID,0.651953,
2011-01-03, 02:08:05,VALID,1006.89,VALID,0,VALID,104,VALID,0,VALID,23.129,VALID,73,VALID,0.411719,
2011-01-03, 02:09:05,VALID,1006.87,VALID,0,VALID,104,VALID,0,VALID,23.09,VALID,73,VALID,0.347266,
2011-01-03, 02:10:05,VALID,1006.87,VALID,0,VALID,104,VALID,0.105969,VALID,23.1077,VALID,73,VALID,0.535547,
2011-01-03, 02:11:05,VALID,1006.85,VALID,0,VALID,104,VALID,0.105969,VALID,23.1095,VALID,73,VALID,0.341797,
2011-01-03, 02:12:05,VALID,1006.82,VALID,0,VALID,104,VALID,0.105969,VALID,23.0883,VALID,73,VALID,0.278906,
2011-01-03, 02:13:05,VALID,1006.83,VALID,0,VALID,104,VALID,0.105969,VALID,23.0883,VALID,73,VALID,0.291406,
2011-01-03, 02:14:05,VALID,1006.84,VALID,0,VALID,104,VALID,0.105969,VALID,23.0688,VALID,73,VALID,0.00585938,
2011-01-03, 02:15:05,VALID,1006.86,VALID,0,VALID,104,VALID,0.105969,VALID,23.0688,VALID,73,VALID,0,
2011-01-03, 02:16:05,VALID,1006.86,VALID,0,VALID,104,VALID,0.105969,VALID,23.0688,VALID,73,VALID,0.231641,
2011-01-03, 02:17:05,VALID,1006.86,VALID,0,VALID,104,VALID,0.105969,VALID,23.0493,VALID,73,VALID,0.125391,
2011-01-03, 02:18:05,VALID,1006.86,VALID,0,VALID,104,VALID,0.105969,VALID,23.0493,VALID,73,VALID,0,
2011-01-03, 02:19:05,VALID,1006.83,VALID,0,VALID,104,VALID,0.105969,VALID,23.0511,VALID,73,VALID,0.0710938,
2011-01-03, 02:20:05,VALID,1006.81,VALID,0,VALID,104,VALID,0.105969,VALID,23.0103,VALID,73,VALID,0.178125,
2011-01-03, 02:21:05,VALID,1006.77,VALID,0,VALID,104,VALID,0.105969,VALID,23.0298,VALID,73,VALID,0,
2011-01-03, 02:22:05,VALID,1006.8,VALID,0,VALID,104,VALID,0.105969,VALID,23.0493,VALID,73,VALID,0.0207031,
2011-01-03, 02:23:05,VALID,1006.77,VALID,0,VALID,104,VALID,0.105969,VALID,23.0298,VALID,73,VALID,0,
2011-01-03, 02:24:05,VALID,1006.76,VALID,0,VALID,104,VALID,0.105969,VALID,23.0298,VALID,73,VALID,0,
2011-01-03, 02:25:05,VALID,1006.75,VALID,0,VALID,104,VALID,0.105969,VALID,23.0103,VALID,73,VALID,0.188281,
2011-01-03, 02:26:05,VALID,1006.75,VALID,0,VALID,104,VALID,0.105969,VALID,23.0316,VALID,73,VALID,0.0714844,
2011-01-03, 02:27:05,VALID,1006.78,VALID,0,VALID,104,VALID,0.105969,VALID,23.0103,VALID,73,VALID,0,
2011-01-03, 02:28:05,VALID,1006.74,VALID,0,VALID,104,VALID,0.105969,VALID,22.9714,VALID,73,VALID,0,
2011-01-03, 02:29:05,VALID,1006.75,VALID,0,VALID,104,VALID,0,VALID,22.9714,VALID,73,VALID,0,
2011-01-03, 02:30:05,VALID,1006.7,VALID,0,VALID,104,VALID,0,VALID,22.9731,VALID,73,VALID,0,
2011-01-03, 02:31:05,VALID,1006.7,VALID,0,VALID,104,VALID,0.105969,VALID,22.9731,VALID,73,VALID,0,
2011-01-03, 02:32:05,VALID,1006.68,VALID,0,VALID,104,VALID,0.105969,VALID,22.9519,VALID,73,VALID,0,
2011-01-03, 02:33:05,VALID,1006.68,VALID,0,VALID,104,VALID,0.105969,VALID,22.9519,VALID,73,VALID,0,
2011-01-03, 02:34:05,VALID,1006.67,VALID,0,VALID,104,VALID,0.105969,VALID,22.9519,VALID,73,VALID,0,
2011-01-03, 02:35:05,VALID,1006.65,VALID,0,VALID,104,VALID,0.105969,VALID,22.9519,VALID,73,VALID,0,
2011-01-03, 02:36:05,VALID,1006.66,VALID,0,VALID,104,VALID,0.105969,VALID,22.9519,VALID,73,VALID,0,
2011-01-03, 02:37:05,VALID,1006.66,VALID,0,VALID,104,VALID,0.105969,VALID,22.9307,VALID,73,VALID,0,
2011-01-03, 02:38:05,VALID,1006.63,VALID,0,VALID,104,VALID,0.105969,VALID,22.9519,VALID,73,VALID,0.320703,
2011-01-03, 02:39:05,VALID,1006.63,VALID,0,VALID,104,VALID,0.105969,VALID,22.9519,VALID,73,VALID,0,
2011-01-03, 02:40:05,VALID,1006.59,VALID,0,VALID,104,VALID,0,VALID,22.9342,VALID,73,VALID,0,
2011-01-03, 02:41:05,VALID,1006.59,VALID,0,VALID,104,VALID,0,VALID,22.9342,VALID,73,VALID,0,
2011-01-03, 02:42:05,VALID,1006.57,VALID,0,VALID,104,VALID,0,VALID,22.9147,VALID,73,VALID,0,
2011-01-03, 02:43:05,VALID,1006.59,VALID,0,VALID,104,VALID,0,VALID,22.9342,VALID,73,VALID,0,
2011-01-03, 02:44:05,VALID,1006.6,VALID,0,VALID,104,VALID,0,VALID,22.9147,VALID,73,VALID,0,
2011-01-03, 02:45:05,VALID,1006.59,VALID,0,VALID,104,VALID,0,VALID,22.9342,VALID,73,VALID,0,
2011-01-03, 02:46:05,VALID,1006.58,VALID,0,VALID,104,VALID,0,VALID,22.9129,VALID,73,VALID,0,
2011-01-03, 02:47:05,VALID,1006.56,VALID,0,VALID,104,VALID,0,VALID,22.9342,VALID,73,VALID,0,
2011-01-03, 02:48:05,VALID,1006.58,VALID,0,VALID,104,VALID,0,VALID,22.9342,VALID,73,VALID,0,
2011-01-03, 02:49:05,VALID,1006.55,VALID,0,VALID,104,VALID,0,VALID,22.9536,VALID,73,VALID,0,
2011-01-03, 02:50:05,VALID,1006.52,VALID,0,VALID,104,VALID,0,VALID,22.9324,VALID,73,VALID,0,
2011-01-03, 02:51:05,VALID,1006.53,VALID,0,VALID,104,VALID,0,VALID,22.9536,VALID,73,VALID,0,
2011-01-03, 02:52:05,VALID,1006.51,VALID,0,VALID,104,VALID,0,VALID,22.9536,VALID,73,VALID,0,
2011-01-03, 02:53:05,VALID,1006.49,VALID,0,VALID,104,VALID,0,VALID,22.9536,VALID,73,VALID,0,
2011-01-03, 02:54:05,VALID,1006.51,VALID,0,VALID,104,VALID,0,VALID,22.9342,VALID,73,VALID,0,
2011-01-03, 02:55:05,VALID,1006.53,VALID,0,VALID,104,VALID,0.105969,VALID,22.9324,VALID,73,VALID,0,
2011-01-03, 02:56:04,VALID,1006.51,VALID,0,VALID,104,VALID,0.105969,VALID,22.9536,VALID,73,VALID,0,
2011-01-03, 02:57:04,VALID,1006.56,VALID,0,VALID,104,VALID,0.105969,VALID,22.9731,VALID,73,VALID,0,
2011-01-03, 02:58:04,VALID,1006.57,VALID,0,VALID,104,VALID,0.105969,VALID,22.9519,VALID,73,VALID,0,
2011-01-03, 02:59:04,VALID,1006.54,VALID,0,VALID,104,VALID,0.105969,VALID,22.9731,VALID,73,VALID,0,
2011-01-03, 03:00:04,VALID,1006.56,VALID,0,VALID,104,VALID,0,VALID,22.9519,VALID,73,VALID,0,
2011-01-03, 03:01:04,VALID,1006.54,VALID,0,VALID,104,VALID,0.105969,VALID,22.9714,VALID,73,VALID,0,
2011-01-03, 03:02:04,VALID,1006.55,VALID,0,VALID,104,VALID,0,VALID,22.9519,VALID,73,VALID,0,
2011-01-03, 03:03:04,VALID,1006.55,VALID,0,VALID,104,VALID,0,VALID,22.9731,VALID,73,VALID,0.279297,
2011-01-03, 03:04:04,VALID,1006.53,VALID,0,VALID,104,VALID,0,VALID,22.9324,VALID,73,VALID,0.213281,
2011-01-03, 03:05:04,VALID,1006.5,VALID,0,VALID,104,VALID,0,VALID,22.9536,VALID,73,VALID,0.269141,
2011-01-03, 03:06:04,VALID,1006.48,VALID,0,VALID,104,VALID,0.105969,VALID,22.9324,VALID,73,VALID,0.208984,
2011-01-03, 03:07:04,VALID,1006.46,VALID,0,VALID,104,VALID,0,VALID,22.9324,VALID,73,VALID,0.166406,
2011-01-03, 03:08:04,VALID,1006.44,VALID,0,VALID,104,VALID,0.105969,VALID,22.9536,VALID,73,VALID,0.0605469,
2011-01-03, 03:09:04,VALID,1006.44,VALID,0,VALID,104,VALID,0.105969,VALID,22.9129,VALID,73,VALID,0,
2011-01-03, 03:10:04,VALID,1006.39,VALID,0,VALID,104,VALID,0,VALID,22.8952,VALID,73,VALID,0.140625,
2011-01-03, 03:11:04,VALID,1006.4,VALID,0,VALID,104,VALID,0,VALID,22.8952,VALID,73,VALID,0,
2011-01-03, 03:12:04,VALID,1006.37,VALID,0,VALID,104,VALID,0,VALID,22.8952,VALID,73,VALID,0,
2011-01-03, 03:13:04,VALID,1006.4,VALID,0,VALID,104,VALID,0,VALID,22.8757,VALID,73,VALID,0,
2011-01-03, 03:14:04,VALID,1006.35,VALID,0,VALID,104,VALID,0,VALID,22.8757,VALID,73,VALID,0,
2011-01-03, 03:15:04,VALID,1006.37,VALID,0,VALID,104,VALID,0,VALID,22.8969,VALID,73,VALID,0,
2011-01-03, 03:16:04,VALID,1006.39,VALID,0,VALID,104,VALID,0,VALID,22.8757,VALID,73,VALID,0,
2011-01-03, 03:17:04,VALID,1006.39,VALID,0,VALID,104,VALID,0,VALID,22.9164,VALID,73,VALID,0,
2011-01-03, 03:18:04,VALID,1006.39,VALID,0,VALID,104,VALID,0,VALID,22.9147,VALID,73,VALID,0,
2011-01-03, 03:19:04,VALID,1006.42,VALID,0,VALID,104,VALID,0,VALID,22.9359,VALID,73,VALID,0,
2011-01-03, 03:20:04,VALID,1006.39,VALID,0,VALID,104,VALID,0,VALID,22.9554,VALID,73,VALID,0,
2011-01-03, 03:21:04,VALID,1006.37,VALID,0,VALID,104,VALID,0,VALID,22.9554,VALID,73,VALID,0,
2011-01-03, 03:22:04,VALID,1006.38,VALID,0,VALID,104,VALID,0,VALID,22.9342,VALID,73,VALID,0,
2011-01-03, 03:23:04,VALID,1006.36,VALID,0,VALID,104,VALID,0,VALID,22.9749,VALID,73,VALID,0,
2011-01-03, 03:24:04,VALID,1006.37,VALID,0,VALID,104,VALID,0,VALID,22.9536,VALID,73,VALID,0,
2011-01-03, 03:25:04,VALID,1006.36,VALID,0,VALID,104,VALID,0,VALID,22.9147,VALID,73,VALID,0.3875,
2011-01-03, 03:26:04,VALID,1006.36,VALID,0,VALID,104,VALID,0,VALID,22.9342,VALID,73,VALID,0.282422,
2011-01-03, 03:27:04,VALID,1006.41,VALID,0,VALID,104,VALID,0,VALID,22.8952,VALID,73,VALID,0.273438,
2011-01-03, 03:28:04,VALID,1006.42,VALID,0,VALID,104,VALID,0,VALID,22.8952,VALID,73,VALID,0.382031,
2011-01-03, 03:29:04,VALID,1006.41,VALID,0,VALID,104,VALID,0,VALID,22.8757,VALID,73,VALID,0.138672,
2011-01-03, 03:30:04,VALID,1006.41,VALID,0,VALID,104,VALID,0,VALID,22.8757,VALID,73,VALID,0,
2011-01-03, 03:31:04,VALID,1006.41,VALID,0,VALID,104,VALID,0,VALID,22.8562,VALID,73,VALID,0,
2011-01-03, 03:32:04,VALID,1006.44,VALID,0,VALID,104,VALID,0,VALID,22.8775,VALID,73,VALID,0,
2011-01-03, 03:33:04,VALID,1006.44,VALID,0,VALID,104,VALID,0,VALID,22.8562,VALID,73,VALID,0,
2011-01-03, 03:34:04,VALID,1006.47,VALID,0,VALID,104,VALID,0,VALID,22.8775,VALID,73,VALID,0,
2011-01-03, 03:35:04,VALID,1006.48,VALID,0,VALID,104,VALID,0,VALID,22.8775,VALID,73,VALID,0,
2011-01-03, 03:36:04,VALID,1006.51,VALID,0,VALID,104,VALID,0,VALID,22.8562,VALID,73,VALID,0,
2011-01-03, 03:37:04,VALID,1006.53,VALID,0,VALID,104,VALID,0,VALID,22.8562,VALID,73,VALID,0,
2011-01-03, 03:38:04,VALID,1006.58,VALID,0,VALID,104,VALID,0,VALID,22.8562,VALID,73,VALID,0,
2011-01-03, 03:39:04,VALID,1006.58,VALID,0,VALID,104,VALID,0,VALID,22.858,VALID,73,VALID,0,
2011-01-03, 03:40:04,VALID,1006.61,VALID,0,VALID,104,VALID,0,VALID,22.835,VALID,73,VALID,0,
2011-01-03, 03:41:04,VALID,1006.62,VALID,0,VALID,104,VALID,0.105969,VALID,22.8545,VALID,73,VALID,0,
2011-01-03, 03:42:04,VALID,1006.61,VALID,0,VALID,104,VALID,0.105969,VALID,22.8545,VALID,73,VALID,0,
2011-01-03, 03:43:04,VALID,1006.6,VALID,0,VALID,104,VALID,0.105969,VALID,22.8545,VALID,73,VALID,0,
2011-01-03, 03:44:04,VALID,1006.61,VALID,0,VALID,104,VALID,0.105969,VALID,22.8545,VALID,73,VALID,0,
2011-01-03, 03:45:04,VALID,1006.61,VALID,0,VALID,104,VALID,0,VALID,22.8545,VALID,73,VALID,0,
2011-01-03, 03:46:04,VALID,1006.65,VALID,0,VALID,104,VALID,0,VALID,22.8562,VALID,73,VALID,0,
2011-01-03, 03:47:04,VALID,1006.66,VALID,0,VALID,104,VALID,0,VALID,22.8545,VALID,73,VALID,0,
2011-01-03, 03:48:04,VALID,1006.66,VALID,0,VALID,104,VALID,0.105969,VALID,22.8545,VALID,73,VALID,0,
2011-01-03, 03:49:04,VALID,1006.69,VALID,0,VALID,104,VALID,0.105969,VALID,22.8562,VALID,73,VALID,0,
2011-01-03, 03:50:04,VALID,1006.72,VALID,0,VALID,104,VALID,0.105969,VALID,22.835,VALID,73,VALID,0,
2011-01-03, 03:51:04,VALID,1006.71,VALID,0,VALID,104,VALID,0.105969,VALID,22.835,VALID,73,VALID,0,
2011-01-03, 03:52:04,VALID,1006.73,VALID,0,VALID,104,VALID,0.105969,VALID,22.835,VALID,73,VALID,0,
2011-01-03, 03:53:04,VALID,1006.74,VALID,0,VALID,104,VALID,0.105969,VALID,22.835,VALID,73,VALID,0,
2011-01-03, 03:54:04,VALID,1006.74,VALID,0,VALID,104,VALID,0.105969,VALID,22.835,VALID,73,VALID,0,
2011-01-03, 03:55:04,VALID,1006.76,VALID,0,VALID,104,VALID,0,VALID,22.8368,VALID,73,VALID,0,
2011-01-03, 03:56:04,VALID,1006.77,VALID,0,VALID,104,VALID,0,VALID,22.8173,VALID,73,VALID,0,
2011-01-03, 03:57:04,VALID,1006.77,VALID,0,VALID,104,VALID,0,VALID,22.8173,VALID,73,VALID,0,
2011-01-03, 03:58:04,VALID,1006.77,VALID,0,VALID,104,VALID,0,VALID,22.858,VALID,73,VALID,0,